Location: Grantsboro
(35.1404°N, 76.8424°W)
Time: 21:55:31
(UTC+00:00)

Cosmos 2181 Rocket - Pass Details

Date: 18 January 2020
Orbit: 953 x 1014 km, 82.9° (Epoch: 18 February)

Event Time Altitude Azimuth Distance (km) Brightness Sun altitude
Rises 11:27:33 0° 197° (SSW) 3,619 7.0 -9.8°
Reaches altitude 10° 11:30:04 10° 201° (SSW) 2,682 6.3 -9.3°
Maximum altitude 11:36:05 56° 279° (W) 1,135 4.1 -8.1°
Drops below altitude 10° 11:42:13 10° 357° (N) 2,734 6.1 -6.9°
Sets 11:44:49 0° 2° (N) 3,695 6.8 -6.4°
